RH
38 39 37 37 35 30 27 24 24 23 24 25 25 26 26 26 26 26 29 30 31 29 31 33 34 34 35 39 49 51 55 52 47 49 51 55 61 61 61 61 62 62 64 64
37 38 33 31 27 27 28 29 30 29 29 29 29 28 28 27 25 25 26 29 30 32 36 40 41 35 32 33 35 48 45 46 44 43 50 50 53 57 54 55 56 56 55 58
37 36 35 36 37 37 36 37 35 33 32 32 30 28 28 27 27 27 27 30 31 34 38 42 40 35 33 32 34 40 41 39 40 39 39 40 43 45 46 48 53 55 58 64
35 40 43 39 40 38 37 37 35 33 34 34 32 29 28 27 28 26 28 30 33 36 39 40 37 36 35 33 32 33 33 34 34 35 38 40 40 40 44 47 52 54 55 52
43 43 41 40 41 40 38 35 35 34 34 34 32 32 29 29 30 31 32 34 37 39 40 40 39 41 38 38 36 34 35 36 36 35 35 36 37 37 39 41 44 50 52 54
45 45 42 42 40 39 37 36 34 34 34 37 33 36 34 30 29 33 35 40 41 39 38 41 40 40 40 40 40 41 41 41 39 38 35 33 33 34 35 35 41 48 51 58
50 49 48 43 41 41 40 39 41 40 44 41 38 39 38 34 34 38 44 45 46 46 48 48 48 45 45 45 46 46 45 43 41 37 35 33 32 30 33 38 43 49 52 59
51 52 51 48 45 44 43 45 49 52 50 39 39 37 35 35 36 37 41 44 48 48 47 47 48 49 47 47 47 46 44 41 39 40 33 33 34 36 39 43 52 60 61 66
59 53 53 52 50 47 48 46 48 49 48 46 40 37 44 44 43 42 45 52 52 51 52 53 55 54 52 51 49 44 39 43 41 38 40 38 41 52 61 67 67 67 72 74
57 58 54 51 50 48 52 53 54 54 60 56 41 42 47 47 47 47 50 54 57 59 60 57 52 51 48 46 42 36 35 43 46 38 43 40 48 66 72 76 91 96 92 91
56 54 51 54 57 59 57 55 55 52 53 58 52 47 44 48 52 57 58 60 63 60 57 54 53 50 45 41 40 40 40 34 38 50 57 65 60 73 80 78 78 75 85 92
72 69 67 62 59 58 58 59 58 60 55 58 56 45 45 51 55 56 60 61 61 61 60 56 53 47 43 44 48 51 36 32 38 51 47 94 56 77 78 69 65 68 79 90
84 93 82 61 55 54 54 56 55 54 55 50 66 46 46 56 55 60 61 62 63 58 56 57 49 47 46 46 50 48 41 40 40 46 54 54 68 65 77 70 70 76 78 91
91 92 79 74 67 71 74 68 66 66 64 56 50 50 47 55 60 63 64 66 62 58 55 53 53 51 46 42 46 47 42 44 50 55 58 60 69 76 80 73 67 76 82 88
95 96 87 77 74 73 70 63 66 70 62 69 45 52 49 55 59 60 62 59 52 51 56 53 53 51 47 48 57 56 48 50 58 61 68 73 69 69 67 72 65 69 75 85
95 93 88 80 80 80 77 63 65 62 62 63 59 50 59 57 58 59 56 52 51 57 54 51 51 47 50 60 64 66 66 55 56 58 61 63 58 57 61 58 60 57 62 66
97 96 97 86 84 82 80 61 61 55 57 61 60 50 55 57 60 58 52 51 54 54 48 45 46 46 42 48 65 79 67 62 66 68 62 58 59 68 64 59 64 54 59 61
96 98 98 93 87 93 57 53 53 54 52 54 52 50 55 59 56 55 54 52 51 48 46 44 45 46 42 46 51 65 71 68 69 66 61 61 56 53 51 50 53 59 61 64
94 97 99 97 92 71 58 55 52 52 47 46 46 46 46 47 49 52 50 47 51 53 50 47 40 39 45 54 59 75 94 76 67 55 52 49 46 51 48 54 57 61 65 70
96 96 98 98 95 83 64 55 54 58 56 56 56 51 50 53 53 46 48 49 49 46 42 43 41 42 43 50 65 80 97 74 58 47 41 43 37 37 51 60 62 64 68 73
96 98 96 96 96 83 69 66 58 64 58 53 54 57 55 50 48 47 44 41 40 37 47 54 48 44 43 52 68 78 89 78 60 50 43 41 43 42 49 63 77 78 81 89
92 98 97 98 97 94 69 72 69 70 66 64 62 57 54 49 46 46 48 41 39 43 47 50 49 48 40 57 81 87 96 75 60 48 44 45 47 52 60 70 83 90 98 94
91 83 87 84 81 75 71 74 70 70 69 62 59 54 47 38 37 36 33 34 35 36 50 51 46 45 44 58 89 97 92 71 57 44 43 50 57 68 84 87 95 98 96 96
78 80 82 81 77 79 77 76 75 70 60 57 51 40 33 31 30 32 35 39 42 47 52 58 54 52 50 73 94 98 81 71 59 48 43 46 51 68 84 90 93 96 93 90
80 79 80 81 76 74 73 70 64 59 53 44 37 33 34 37 38 42 43 43 49 56 62 67 59 80 56 71 90 96 75 65 53 46 45 42 50 57 64 84 96 98 96 93
81 85 77 78 73 68 62 59 57 51 46 41 36 37 39 45 47 48 47 51 60 67 69 62 63 86 72 75 84 98 91 80 64 58 51 46 46 50 57 64 77 94 95 96